FW5381 Weather Reports


time (UTC)temp
C
wind
direction
speed
KPH
gust
KPH
rain 1hr
cm
rain 24hr
cm
rain mn
cm
humidity
%
barometer
mb
20260506045014 14 328 0.0 4.8 0.00 0.00 0.00 64 1017.1
20260506044537 14 0 0.0 6.4 0.00 0.00 0.00 65 1017.1
20260506044009 14 327 1.6 6.4 0.00 0.00 0.00 64 1017.1
20260506043511 15 0 0.0 3.2 0.00 0.00 0.00 64 1017.2
20260506043030 15 0 0.0 6.4 0.00 0.00 0.00 62 1017.1
20260506042512 15 334 0.0 6.4 0.00 0.00 0.00 63 1017.1
20260506042011 15 299 1.6 6.4 0.00 0.00 0.00 62 1017.1
20260506041530 15 352 0.0 6.4 0.00 0.00 0.00 60 1017.1
20260506041013 16 22 0.0 11.3 0.00 0.00 0.00 59 1017.0
20260506040512 16 300 4.8 11.3 0.00 0.00 0.00 59 1016.9
20260506040035 16 299 1.6 14.5 0.00 0.00 0.00 56 1016.8
20260506035513 16 311 3.2 14.5 0.00 0.00 0.00 54 1016.7
20260506035013 16 340 3.2 14.5 0.00 0.00 0.00 52 1016.7
20260506034532 16 286 3.2 11.3 0.00 0.00 0.00 48 1016.6
20260506034014 17 282 3.2 9.7 0.00 0.00 0.00 45 1016.6
20260506033511 17 284 3.2 9.7 0.00 0.00 0.00 42 1016.4
20260506033031 17 269 1.6 9.7 0.00 0.00 0.00 41 1016.5
20260506032510 17 304 3.2 9.7 0.00 0.00 0.00 39 1016.5
20260506032011 18 0 3.2 12.9 0.00 0.00 0.00 39 1016.2
20260506031539 18 303 3.2 12.9 0.00 0.00 0.00 38 1016.4
20260506031011 18 300 1.6 12.9 0.00 0.00 0.00 37 1016.4
20260506030512 18 300 4.8 11.3 0.00 0.00 0.00 36 1016.3
20260506030029 18 256 1.6 9.7 0.00 0.00 0.00 37 1016.2
20260506025510 19 300 3.2 12.9 0.00 0.00 0.00 35 1016.2
20260506025012 19 284 1.6 12.9 0.00 0.00 0.00 36 1016.2
20260506024531 19 267 3.2 12.9 0.00 0.00 0.00 36 1016.0
20260506024010 19 259 3.2 11.3 0.00 0.00 0.00 36 1015.9
20260506023512 19 0 3.2 8.0 0.00 0.00 0.00 36 1015.8
20260506023051 19 336 3.2 6.4 0.00 0.00 0.00 37 1015.8
20260506022513 20 244 0.0 4.8 0.00 0.00 0.00 40 1015.8
20260506022017 20 244 1.6 4.8 0.00 0.00 0.00 40 1015.8
20260506021557 20 294 1.6 8.0 0.00 0.00 0.00 40 1015.7
20260506021016 20 211 0.0 8.0 0.00 0.00 0.00 40 1015.7
20260506020512 20 313 1.6 9.7 0.00 0.00 0.00 39 1015.6
20260506020031 20 344 1.6 11.3 0.00 0.00 0.00 39 1015.7
20260506015512 20 306 4.8 11.3 0.00 0.00 0.00 38 1015.6
20260506015012 20 258 3.2 14.5 0.00 0.00 0.00 38 1015.7
20260506014529 20 292 3.2 17.7 0.00 0.00 0.00 38 1015.5
20260506014013 20 315 4.8 17.7 0.00 0.00 0.00 38 1015.5
20260506013513 20 342 8.0 17.7 0.00 0.00 0.00 38 1015.4
20260506013033 20 303 3.2 17.7 0.00 0.00 0.00 40 1015.5
20260506012512 20 350 6.4 17.7 0.00 0.00 0.00 40 1015.2
20260506012012 20 309 1.6 14.5 0.00 0.00 0.00 42 1015.4
20260506011530 20 333 4.8 16.1 0.00 0.00 0.00 42 1015.2
20260506011009 20 306 3.2 16.1 0.00 0.00 0.00 42 1015.2
20260506010513 20 355 3.2 16.1 0.00 0.00 0.00 41 1015.2
20260506010035 20 331 6.4 17.7 0.00 0.00 0.00 41 1015.2
20260506005513 20 41 3.2 17.7 0.00 0.00 0.00 41 1015.1
20260506005014 20 323 4.8 19.3 0.00 0.00 0.00 41 1015.1
20260506004530 20 41 4.8 19.3 0.00 0.00 0.00 40 1015.2
20260506004013 21 290 6.4 24.1 0.00 0.00 0.00 40 1015.1
20260506003517 21 309 8.0 24.1 0.00 0.00 0.00 37 1014.9
20260506003032 21 57 4.8 19.3 0.00 0.00 0.00 36 1014.7
20260506002512 21 254 3.2 16.1 0.00 0.00 0.00 37 1014.9
20260506002012 21 311 6.4 16.1 0.00 0.00 0.00 38 1014.8
20260506001531 21 300 3.2 9.7 0.00 0.00 0.00 38 1014.7
20260506001013 21 314 3.2 12.9 0.00 0.00 0.00 38 1014.6
20260506000512 21 325 1.6 19.3 0.00 0.00 0.00 38 1014.8
20260506000033 22 15 8.0 19.3 0.00 0.00 0.00 36 1014.7
20260505235513 22 341 1.6 14.5 0.00 0.00 0.00 35 1014.7
20260505235013 22 0 3.2 16.1 0.00 0.00 0.00 35 1014.6
20260505234530 22 36 3.2 16.1 0.00 0.00 0.00 34 1014.7
20260505234016 23 41 4.8 12.9 0.00 0.00 0.00 34 1014.7
20260505233514 22 15 3.2 11.3 0.00 0.00 0.00 37 1014.6
20260505233030 22 292 3.2 8.0 0.00 0.00 0.00 38 1014.6
20260505232512 22 292 3.2 11.3 0.00 0.00 0.00 38 1014.7
20260505232017 22 310 3.2 11.3 0.00 0.00 0.00 38 1014.7
20260505231547 22 278 4.8 11.3 0.00 0.00 0.00 36 1014.7
20260505231016 22 254 1.6 8.0 0.00 0.00 0.00 37 1014.6
20260505230514 23 217 3.2 12.9 0.00 0.00 0.00 38 1014.5
20260505230030 23 10 3.2 16.1 0.00 0.00 0.00 36 1014.6
20260505225513 23 236 8.0 16.1 0.00 0.00 0.00 37 1014.6
20260505225012 23 5 3.2 11.3 0.00 0.00 0.00 37 1014.6
20260505224532 23 0 3.2 16.1 0.00 0.00 0.00 37 1014.7
20260505224011 23 248 1.6 16.1 0.00 0.00 0.00 37 1014.8
20260505223513 23 0 3.2 16.1 0.00 0.00 0.00 37 1014.7
20260505223031 23 285 4.8 16.1 0.00 0.00 0.00 36 1014.8
20260505222517 24 289 6.4 19.3 0.00 0.00 0.00 33 1014.6
20260505222013 24 286 8.0 20.9 0.00 0.00 0.00 36 1014.6
20260505221530 23 269 9.7 20.9 0.00 0.00 0.00 36 1014.8
20260505221012 23 312 9.7 20.9 0.00 0.00 0.00 37 1014.8
20260505220515 22 274 3.2 8.0 0.00 0.00 0.00 35 1014.6
20260505220032 22 355 4.8 8.0 0.00 0.00 0.00 36 1014.8
20260505215512 22 320 3.2 8.0 0.00 0.00 0.00 36 1014.7
20260505215014 22 322 1.6 12.9 0.00 0.00 0.00 36 1014.9
20260505214540 22 321 1.6 27.4 0.00 0.00 0.00 37 1014.9
20260505214018 22 322 4.8 27.4 0.00 0.00 0.00 35 1014.8
20260505213512 22 33 11.3 27.4 0.00 0.00 0.00 35 1014.7
20260505213037 22 252 4.8 11.3 0.00 0.00 0.00 35 1014.8
20260505212514 22 275 3.2 9.7 0.00 0.00 0.00 35 1014.9
20260505212011 22 294 3.2 14.5 0.00 0.00 0.00 36 1014.8
20260505211532 22 115 6.4 16.1 0.00 0.00 0.00 35 1014.8
20260505211013 23 17 1.6 20.9 0.00 0.00 0.00 34 1014.8
20260505210513 23 157 3.2 20.9 0.00 0.00 0.00 34 1014.8
20260505210030 23 90 8.0 20.9 0.00 0.00 0.00 34 1014.9
20260505205518 23 360 4.8 17.7 0.00 0.00 0.00 34 1014.8
20260505205011 23 60 6.4 17.7 0.00 0.00 0.00 34 1014.8
20260505204530 23 68 6.4 16.1 0.00 0.00 0.00 34 1014.8
20260505204014 23 54 6.4 17.7 0.00 0.00 0.00 33 1014.8
20260505203514 23 321 3.2 19.3 0.00 0.00 0.00 34 1014.6
20260505203050 23 315 6.4 19.3 0.00 0.00 0.00 33 1014.8
20260505202514 23 139 4.8 20.9 0.00 0.00 0.00 32 1014.8
20260505202012 23 312 4.8 20.9 0.00 0.00 0.00 33 1014.8
20260505201533 22 11 4.8 19.3 0.00 0.00 0.00 34 1014.9
20260505201016 22 88 6.4 17.7 0.00 0.00 0.00 35 1014.9
20260505200512 22 355 6.4 17.7 0.00 0.00 0.00 34 1014.8
20260505200029 22 124 8.0 17.7 0.00 0.00 0.00 34 1014.8
20260505195515 22 65 4.8 17.7 0.00 0.00 0.00 36 1014.8
20260505195014 22 314 3.2 14.5 0.00 0.00 0.00 37 1015.0
20260505194532 22 5 4.8 16.1 0.00 0.00 0.00 35 1014.9
20260505194015 22 57 4.8 17.7 0.00 0.00 0.00 35 1015.1
20260505193512 22 56 8.0 19.3 0.00 0.00 0.00 34 1015.1
20260505193034 22 138 4.8 19.3 0.00 0.00 0.00 35 1014.9
20260505192513 22 5 6.4 19.3 0.00 0.00 0.00 34 1015.0
20260505192014 22 105 4.8 19.3 0.00 0.00 0.00 35 1015.2
20260505191532 22 184 4.8 19.3 0.00 0.00 0.00 34 1015.1
20260505191013 22 355 6.4 19.3 0.00 0.00 0.00 36 1014.9
20260505190513 22 20 4.8 12.9 0.00 0.00 0.00 36 1015.0
20260505190034 22 352 3.2 16.1 0.00 0.00 0.00 36 1015.1
20260505185518 22 109 3.2 16.1 0.00 0.00 0.00 37 1015.1
20260505185012 22 334 6.4 16.1 0.00 0.00 0.00 36 1015.2
20260505184535 22 27 4.8 16.1 0.00 0.00 0.00 37 1015.0
20260505184012 21 114 3.2 11.3 0.00 0.00 0.00 37 1014.9
20260505183512 21 138 3.2 12.9 0.00 0.00 0.00 38 1015.0
20260505183031 21 171 1.6 12.9 0.00 0.00 0.00 40 1014.9
20260505182513 21 38 4.8 12.9 0.00 0.00 0.00 40 1015.0
20260505182012 21 0 1.6 8.0 0.00 0.00 0.00 40 1015.0
20260505181538 21 0 1.6 8.0 0.00 0.00 0.00 40 1015.2
20260505181013 20 108 0.0 11.3 0.00 0.00 0.00 42 1015.0
20260505180511 20 120 3.2 11.3 0.00 0.00 0.00 40 1015.1
20260505180033 20 112 1.6 11.3 0.00 0.00 0.00 41 1015.1
20260505175513 20 342 1.6 11.3 0.00 0.00 0.00 41 1015.1
20260505175011 20 40 4.8 11.3 0.00 0.00 0.00 42 1015.2
20260505174539 19 301 1.6 9.7 0.00 0.00 0.00 43 1015.2
20260505174014 19 307 1.6 9.7 0.00 0.00 0.00 44 1015.2
20260505173513 19 61 3.2 9.7 0.00 0.00 0.00 43 1015.3
20260505173032 18 69 1.6 8.0 0.00 0.00 0.00 45 1015.3
20260505172515 18 306 0.0 6.4 0.00 0.00 0.00 45 1015.2
20260505172013 17 96 1.6 11.3 0.00 0.00 0.00 46 1015.2
20260505171529 17 75 1.6 11.3 0.00 0.00 0.00 44 1015.4
20260505171013 17 107 3.2 11.3 0.00 0.00 0.00 45 1015.3
20260505170513 17 0 3.2 9.7 0.00 0.00 0.00 48 1015.2
20260505170036 17 100 0.0 6.4 0.00 0.00 0.00 48 1015.2
20260505165513 16 0 1.6 6.4 0.00 0.00 0.00 49 1015.2
20260505165013 16 34 1.6 4.8 0.00 0.00 0.00 50 1015.1
20260505164532 16 9 1.6 4.8 0.00 0.00 0.00 53 1015.0
20260505164012 15 0 0.0 4.8 0.00 0.00 0.00 57 1015.1
20260505163514 15 10 1.6 6.4 0.00 0.00 0.00 58 1015.1
20260505163035 15 10 1.6 6.4 0.00 0.00 0.00 60 1015.1
20260505162514 15 5 1.6 4.8 0.00 0.00 0.00 60 1015.2
20260505162013 14 88 1.6 4.8 0.00 0.00 0.00 62 1015.1
20260505161530 14 0 0.0 3.2 0.00 0.00 0.00 63 1015.2
20260505161011 13 123 0.0 4.8 0.00 0.00 0.00 63 1015.3
20260505160511 13 170 1.6 4.8 0.00 0.00 0.00 66 1015.2
20260505153030 10 142 3.2 6.4 0.00 0.00 0.00 77 1015.2
20260505152512 9 330 0.0 3.2 0.00 0.00 0.00 80 1015.3
20260505152017 8 19 0.0 3.2 0.00 0.00 0.00 83 1015.1
20260505151545 7 20 0.0 3.2 0.00 0.00 0.00 84 1015.1
20260505151013 7 0 0.0 1.6 0.00 0.00 0.00 87 1015.1
20260505150517 6 0 0.0 0.0 0.00 0.00 0.00 90 1015.0
20260505140514 0 0 0.0 1.6 0.00 0.00 0.00 90 1015.0
20260505125014 0 0 0.0 0.0 0.00 0.00 0.00 89 1014.5
20260505124529 0 0 0.0 0.0 0.00 0.00 0.00 89 1014.5
20260505124015 0 0 0.0 0.0 0.00 0.00 0.00 89 1014.4
20260505123514 0 0 0.0 0.0 0.00 0.00 0.00 89 1014.5
20260505123031 0 0 0.0 0.0 0.00 0.00 0.00 89 1014.5
20260505122514 0 0 0.0 0.0 0.00 0.00 0.00 89 1014.4
20260505122014 0 0 0.0 0.0 0.00 0.00 0.00 88 1014.3
20260505121532 0 0 0.0 0.0 0.00 0.00 0.00 89 1014.5
20260505121012 0 0 0.0 0.0 0.00 0.00 0.00 88 1014.3
20260505120517 0 0 0.0 0.0 0.00 0.00 0.00 88 1014.3
20260505120030 0 0 0.0 0.0 0.00 0.00 0.00 88 1014.2
20260505115515 0 0 0.0 0.0 0.00 0.00 0.00 88 1014.3
20260505115012 0 0 0.0 0.0 0.00 0.00 0.00 89 1014.3
20260505114535 0 0 0.0 0.0 0.00 0.00 0.00 88 1014.1
20260505114016 0 0 0.0 0.0 0.00 0.00 0.00 88 1014.0
20260505113513 0 0 0.0 0.0 0.00 0.00 0.00 88 1014.2
20260505113030 0 0 0.0 0.0 0.00 0.00 0.00 88 1014.2
20260505112516 0 0 0.0 0.0 0.00 0.00 0.00 88 1014.1
20260505112012 0 0 0.0 0.0 0.00 0.00 0.00 88 1014.1
20260505111532 1 0 0.0 0.0 0.00 0.00 0.00 88 1014.0
20260505111013 1 0 0.0 0.0 0.00 0.00 0.00 88 1014.0
20260505110514 1 0 0.0 0.0 0.00 0.00 0.00 88 1014.0
20260505102011 2 0 0.0 0.0 0.00 0.00 0.00 88 1013.7
20260505101534 2 0 0.0 0.0 0.00 0.00 0.00 88 1013.7
20260505101011 2 0 0.0 0.0 0.00 0.00 0.00 87 1013.6
20260505100511 2 0 0.0 0.0 0.00 0.00 0.00 87 1013.6
20260505100034 2 0 0.0 0.0 0.00 0.00 0.00 87 1013.7
20260505095512 2 0 0.0 0.0 0.00 0.00 0.00 86 1013.7
20260505095012 2 0 0.0 0.0 0.00 0.00 0.00 86 1013.6
20260505094530 2 0 0.0 0.0 0.00 0.00 0.00 86 1013.7
20260505094013 2 0 0.0 0.0 0.00 0.00 0.00 86 1013.7
20260505093512 2 0 0.0 0.0 0.00 0.00 0.00 86 1013.7
20260505093040 3 0 0.0 0.0 0.00 0.00 0.00 86 1013.8
20260505092516 3 0 0.0 0.0 0.00 0.00 0.00 86 1013.9
20260505092013 3 0 0.0 0.0 0.00 0.00 0.00 86 1013.9
20260505091530 3 0 0.0 0.0 0.00 0.00 0.00 85 1013.7
20260505091014 3 0 0.0 0.0 0.00 0.00 0.00 85 1013.8
20260505090512 3 0 0.0 0.0 0.00 0.00 0.00 85 1013.8
20260505090038 3 0 0.0 0.0 0.00 0.00 0.00 85 1013.7
20260505085514 3 0 0.0 0.0 0.00 0.00 0.00 84 1013.6
20260505085017 4 0 0.0 0.0 0.00 0.00 0.00 85 1013.6
20260505084530 4 0 0.0 0.0 0.00 0.00 0.00 84 1013.6
20260505084012 4 0 0.0 0.0 0.00 0.00 0.00 84 1013.7
20260505083513 5 0 0.0 0.0 0.00 0.00 0.00 84 1013.8
20260505083033 5 0 0.0 0.0 0.00 0.00 0.00 83 1013.7
20260505082511 5 0 0.0 0.0 0.00 0.00 0.00 83 1013.8
20260505082012 5 0 0.0 0.0 0.00 0.00 0.00 83 1013.7
20260505081532 5 0 0.0 0.0 0.00 0.00 0.00 83 1013.8
20260505081013 5 0 0.0 0.0 0.00 0.00 0.00 82 1013.7
20260505080513 5 0 0.0 0.0 0.00 0.00 0.00 82 1013.7
20260505080031 6 0 0.0 1.6 0.00 0.00 0.00 82 1013.7
20260505075514 6 0 0.0 1.6 0.00 0.00 0.00 81 1013.6
20260505075013 6 294 0.0 1.6 0.00 0.00 0.00 80 1013.7
20260505074530 6 0 0.0 1.6 0.00 0.00 0.00 80 1013.8
20260505074011 6 0 0.0 1.6 0.00 0.00 0.00 80 1013.7
20260505073513 7 0 0.0 1.6 0.00 0.00 0.00 79 1013.7
20260505073037 7 0 0.0 1.6 0.00 0.00 0.00 79 1013.7
20260505072513 7 294 0.0 1.6 0.00 0.00 0.00 78 1013.8
20260505072012 7 0 0.0 1.6 0.00 0.00 0.00 78 1013.7
20260505071529 8 0 0.0 1.6 0.00 0.00 0.00 77 1013.7
20260505071010 8 0 0.0 1.6 0.00 0.00 0.00 76 1013.7
20260505070513 8 0 0.0 0.0 0.00 0.00 0.00 76 1013.7
20260505070032 8 0 0.0 0.0 0.00 0.00 0.00 76 1013.7
20260505065512 9 0 0.0 1.6 0.00 0.00 0.00 75 1013.6
20260505065011 9 0 0.0 1.6 0.00 0.00 0.00 75 1013.5
20260505064532 10 0 0.0 1.6 0.00 0.00 0.00 74 1013.5
20260505064012 10 0 0.0 1.6 0.00 0.00 0.00 73 1013.4
20260505063510 10 294 0.0 1.6 0.00 0.00 0.00 72 1013.3
20260505063030 10 0 0.0 1.6 0.00 0.00 0.00 72 1013.3
20260505062519 10 0 0.0 3.2 0.00 0.00 0.00 71 1013.2
20260505062014 11 0 0.0 3.2 0.00 0.00 0.00 71 1013.2
20260505061531 11 0 0.0 4.8 0.00 0.00 0.00 70 1013.4
20260505061016 11 0 0.0 4.8 0.00 0.00 0.00 70 1013.2
20260505060514 11 0 0.0 8.0 0.00 0.00 0.00 70 1013.2
20260505060034 11 296 3.2 8.0 0.00 0.00 0.00 69 1013.2
20260505055515 11 276 1.6 8.0 0.00 0.00 0.00 69 1013.3
20260505055012 11 0 3.2 8.0 0.00 0.00 0.00 68 1013.3
20260505054538 11 360 1.6 9.7 0.00 0.00 0.00 68 1013.4
20260505054017 12 265 1.6 14.5 0.00 0.00 0.00 67 1013.3
20260505053512 12 306 1.6 16.1 0.00 0.00 0.00 67 1013.4
20260505053039 12 285 4.8 16.1 0.00 0.00 0.00 67 1013.4
20260505052513 12 302 4.8 14.5 0.00 0.00 0.00 67 1013.4
20260505052015 12 317 1.6 4.8 0.00 0.00 0.00 66 1013.5
20260505051535 12 0 1.6 6.4 0.00 0.00 0.00 66 1013.6
20260505051014 12 71 1.6 9.7 0.00 0.00 0.00 66 1013.4
20260505050517 12 68 1.6 12.9 0.00 0.00 0.00 65 1013.2